Вернуться в каталог

STARLINK-3587

АктивенСвязьVLEO
NORAD 51892·PAYLOAD·🇺🇸 United States

Запущен Mar 3, 2022 с Cape Canaveral Space Force Station

Loading…

Ближайшие Пролёты (ближайшие 24 часа)

TLE

СвежийSource: CelesTrak SupGP

Эпоха: Sep 15, 2026, 02:39 UTC

1 51892C 22022AS  26258.11090278 -.00022381  00000+0 -66145-3 0  2584
2 51892  53.1570 213.2594 0001249  88.6472 237.5556 15.34392906    11

Отслеживайте STARLINK-3587 в реальном времени с AllMySat

Download on the App Store